Rantoul, IL

7:36 PM CST on December 14, 2017 (GMT -0600)
Rantoul

Weather History for KTIP - March, 2014

Change the Weather History Date:

Wednesday, March 12, 2014

  Actual Average (KCMI) Record (KCMI)
Temperature  
Mean Temperature 32 °F -  
Max Temperature 38 °F 44 °F 77 °F (2012)
Min Temperature 23 °F 26 °F 0 °F (1998)
Degree Days  
Heating Degree Days 34    
Moisture  
Dew Point 27 °F    
Average Humidity 83    
Maximum Humidity 93    
Minimum Humidity 67    
Precipitation  
Precipitation 0.29 in - - ()
Sea Level Pressure  
Sea Level Pressure 29.85 in    
Wind  
Wind Speed 17 mph (North)    
Max Wind Speed 30 mph    
Max Gust Speed 37 mph    
Visibility 7 miles    
Events Rain , Snow    
Averages and records for this station are not official NWS values.
T = Trace of Precipitation, MM = Missing Value Source: NWS Daily Summary

Daily Weather History Graph

Daily Weather History Graph

Search for Another Location

Airport or City:

Trip Planner

Search our weather history database for the weather conditions in past years. The results will help you decide how hot, cold, wet, or windy it might be!

Date:

Astronomy

Mar. 12, 2014 Rise Set
Actual Time 7:08 AM CDT 6:56 PM CDT
Civil Twilight 6:41 AM CDT 7:23 PM CDT
Nautical Twilight 6:10 AM CDT 7:54 PM CDT
Astronomical Twilight 5:38 AM CDT 8:26 PM CDT
Moon 3:26 PM CDT (3/12) 4:40 AM CDT (3/12)
Length of Visible Light 12h 41m
Length of Day
11h 47m
Waxing Gibbous, 85% of the Moon is Illuminated
Mar 12
Waxing Gibbous
Mar 16
Full
Mar 23
Last Quarter
Mar 30
New
Apr 7
First Quarter

Hourly Weather History & Observations

Time (CDT) Temp. Windchill Dew Point Humidity Pressure Visibility Wind Dir Wind Speed Gust Speed Precip Events Conditions
12:15 AM 39.0 °F 30.3 °F 35.1 °F 86% 29.56 in 10.0 mi NNE 16.1 mph 36.8 mph N/A Rain Light Rain
12:35 AM 38.5 °F 27.8 °F 35.1 °F 87% 29.55 in 7.0 mi NNE 23.0 mph 28.8 mph 0.02 in Rain Rain
12:55 AM 38.3 °F 28.1 °F 35.2 °F 89% 29.56 in 4.0 mi North 20.7 mph 28.8 mph 0.05 in Rain Light Rain
1:15 AM 37.9 °F 27.3 °F 35.1 °F 89% 29.54 in 3.0 mi NNE 21.9 mph 32.2 mph 0.06 in Rain Light Rain
1:35 AM 37.4 °F 25.4 °F 34.9 °F 91% 29.51 in 4.0 mi NNE 27.6 mph 33.4 mph 0.09 in Rain Light Rain
1:55 AM 37.4 °F 26.4 °F 34.9 °F 91% 29.52 in 5.0 mi NNE 23.0 mph 33.4 mph 0.10 in Rain Rain
2:15 AM 36.9 °F 25.4 °F 34.7 °F 92% 29.51 in 5.0 mi NNE 24.2 mph 36.8 mph 0.02 in Rain Rain
2:35 AM 36.7 °F 24.7 °F 34.3 °F 91% 29.51 in 5.0 mi NNE 26.5 mph 32.2 mph 0.05 in Rain Rain
2:55 AM 36.1 °F 24.4 °F 34.0 °F 92% 29.52 in 2.5 mi North 24.2 mph 33.4 mph 0.11 in Rain Light Rain
3:15 AM 35.1 °F 21.8 °F 32.9 °F 92% 29.53 in 5.0 mi North 29.9 mph 36.8 mph 0.02 in Rain Rain
3:35 AM 34.3 °F 22.0 °F 32.4 °F 92% 29.56 in 1.2 mi North 24.2 mph 32.2 mph 0.03 in Snow Snow
3:55 AM 34.3 °F 22.3 °F 32.4 °F 92% 29.59 in 1.0 mi North 23.0 mph 31.1 mph 0.03 in Snow Snow
4:15 AM 34.2 °F 22.3 °F 32.2 °F 92% 29.58 in 0.8 mi North 21.9 mph 31.1 mph N/A Snow Snow
4:35 AM 34.0 °F 22.1 °F 32.2 °F 93% 29.58 in 0.8 mi North 21.9 mph 31.1 mph N/A Snow Heavy Snow
4:55 AM 34.0 °F 21.8 °F 32.2 °F 93% 29.57 in 1.2 mi North 23.0 mph 33.4 mph N/A Snow Light Snow
5:15 AM 34.2 °F 22.1 °F 32.2 °F 92% 29.59 in 2.5 mi North 23.0 mph 29.9 mph N/A Snow Light Snow
5:35 AM 33.8 °F 21.0 °F 32.0 °F 93% 29.60 in 2.0 mi North 25.3 mph 33.4 mph N/A Snow Light Snow
5:55 AM 33.8 °F 21.0 °F 32.0 °F 93% 29.62 in 2.5 mi North 25.3 mph 35.7 mph N/A Snow Light Snow
6:10 AM 33.8 °F 22.2 °F 32.0 °F 93% 29.63 in 2.5 mi North 20.7 mph 33.4 mph N/A Snow Light Snow
6:35 AM 33.8 °F 21.6 °F 31.8 °F 92% 29.67 in 3.0 mi North 23.0 mph 29.9 mph N/A Snow Light Snow
6:50 AM 33.6 °F 21.3 °F 31.6 °F 92% 29.68 in 3.0 mi North 23.0 mph 31.1 mph N/A Snow Light Snow
7:15 AM 32.5 °F 19.6 °F 30.7 °F 93% 29.71 in 1.5 mi North 24.2 mph 27.6 mph N/A Snow Light Snow
7:35 AM 32.0 °F 19.8 °F 29.7 °F 91% 29.71 in 0.8 mi North 20.7 mph 26.5 mph N/A Snow Light Snow
7:55 AM 31.8 °F 19.9 °F 29.3 °F 90% 29.73 in 0.5 mi North 19.6 mph 27.6 mph N/A Snow Light Snow
8:15 AM 31.6 °F 19.7 °F 29.1 °F 90% 29.75 in 2.0 mi North 19.6 mph 24.2 mph N/A Snow Light Snow
8:35 AM 31.6 °F 20.7 °F 28.4 °F 88% 29.77 in 2.0 mi North 16.1 mph 23.0 mph N/A Snow Light Snow
8:55 AM 31.6 °F 20.4 °F 28.4 °F 88% 29.79 in 7.0 mi North 17.3 mph 23.0 mph N/A   Unknown
9:15 AM 32.0 °F 20.5 °F 27.9 °F 85% 29.80 in 10.0 mi North 18.4 mph 26.5 mph N/A   Unknown
9:35 AM 32.0 °F 21.6 °F 27.0 °F 82% 29.82 in 10.0 mi North 15.0 mph 25.3 mph N/A   Unknown
9:55 AM 31.8 °F 20.6 °F 27.0 °F 82% 29.83 in 10.0 mi North 17.3 mph 20.7 mph N/A   Unknown
10:15 AM 32.0 °F 20.8 °F 26.6 °F 80% 29.84 in 10.0 mi NNW 17.3 mph 23.0 mph N/A   Unknown
10:35 AM 32.0 °F 21.6 °F 26.4 °F 80% 29.86 in 10.0 mi North 15.0 mph 24.2 mph N/A   Unknown
10:55 AM 32.2 °F 21.4 °F 25.9 °F 78% 29.87 in 10.0 mi North 16.1 mph 27.6 mph N/A   Unknown
11:15 AM 32.9 °F 22.0 °F 26.2 °F 76% 29.87 in 10.0 mi North 17.3 mph 24.2 mph N/A   Unknown
11:35 AM 32.7 °F 22.1 °F 26.4 °F 78% 29.88 in 10.0 mi North 16.1 mph 21.9 mph N/A   Unknown
11:55 AM 33.3 °F 23.2 °F 26.6 °F 77% 29.89 in 10.0 mi NNW 15.0 mph 21.9 mph N/A   Unknown
12:15 PM 33.8 °F 29.6 °F 27.1 °F 77% 29.90 in 10.0 mi NNW 4.6 mph - N/A   Unknown
12:35 PM 33.6 °F 25.6 °F 26.8 °F 76% 29.91 in 10.0 mi NNW 10.4 mph 17.3 mph N/A   Unknown
12:55 PM 33.8 °F 25.8 °F 26.8 °F 75% 29.92 in 10.0 mi NNW 10.4 mph 19.6 mph N/A   Unknown
1:15 PM 33.3 °F 23.2 °F 26.4 °F 76% 29.93 in 10.0 mi NW 15.0 mph 19.6 mph N/A   Unknown
1:35 PM 33.1 °F 23.4 °F 26.1 °F 75% 29.94 in 10.0 mi NW 13.8 mph 20.7 mph N/A   Unknown
1:55 PM 33.4 °F 23.9 °F 26.2 °F 75% 29.94 in 10.0 mi NNW 13.8 mph 18.4 mph N/A   Unknown
2:15 PM 33.3 °F 22.8 °F 24.8 °F 71% 29.94 in 10.0 mi NNW 16.1 mph 19.6 mph N/A   Unknown
2:35 PM 32.7 °F 23.0 °F 23.7 °F 69% 29.95 in 10.0 mi NNW 13.8 mph 19.6 mph N/A   Unknown
2:55 PM 32.9 °F 24.7 °F 25.7 °F 75% 29.96 in 10.0 mi NNW 10.4 mph 18.4 mph N/A   Unknown
3:15 PM 32.0 °F 22.5 °F 25.0 °F 75% 29.96 in 10.0 mi North 12.7 mph 16.1 mph N/A   Unknown
3:35 PM 32.2 °F 22.7 °F 25.2 °F 75% 29.98 in 5.0 mi North 12.7 mph - N/A   Unknown
3:50 PM 31.8 °F 22.3 °F 25.3 °F 77% 29.98 in 4.0 mi North 12.7 mph 17.3 mph N/A Snow Light Snow
4:15 PM 31.8 °F 22.8 °F 24.6 °F 75% 29.99 in 3.0 mi North 11.5 mph - N/A Snow Light Snow
4:35 PM 31.6 °F 22.6 °F 25.9 °F 79% 29.99 in 5.0 mi North 11.5 mph - N/A Snow Light Snow
4:55 PM 30.7 °F 20.9 °F 26.2 °F 83% 30.01 in 2.0 mi North 12.7 mph - N/A Snow Light Snow
5:15 PM 30.0 °F 21.1 °F 25.5 °F 83% 30.01 in 1.5 mi NNW 10.4 mph 17.3 mph N/A Snow Light Snow
5:35 PM 30.7 °F - 26.6 °F 85% 30.02 in 4.0 mi Calm Calm - N/A Snow Light Snow
5:55 PM 30.7 °F 24.9 °F 25.9 °F 82% 30.03 in 10.0 mi NNW 5.8 mph - N/A   Unknown
6:15 PM 30.6 °F 23.8 °F 24.4 °F 78% 30.05 in 10.0 mi NW 6.9 mph - N/A   Unknown
6:35 PM 30.2 °F 25.4 °F 23.0 °F 75% 30.06 in 10.0 mi NNW 4.6 mph - N/A   Unknown
6:55 PM 30.2 °F 21.3 °F 23.0 °F 75% 30.06 in 10.0 mi NNW 10.4 mph 16.1 mph N/A   Unknown
7:15 PM 30.0 °F 20.5 °F 22.1 °F 72% 30.07 in 10.0 mi NNW 11.5 mph 17.3 mph N/A   Unknown
7:35 PM 29.3 °F 20.2 °F 20.3 °F 69% 30.08 in 10.0 mi North 10.4 mph 17.3 mph N/A   Unknown
7:55 PM 28.8 °F 18.4 °F 20.3 °F 71% 30.08 in 10.0 mi North 12.7 mph - N/A   Unknown
8:15 PM 28.2 °F - 18.5 °F 67% 30.09 in 10.0 mi Calm Calm - N/A   Unknown
8:35 PM 27.9 °F - 20.1 °F 73% 30.10 in 10.0 mi Calm Calm - N/A   Unknown
8:55 PM 26.6 °F - 22.5 °F 84% 30.10 in 10.0 mi Calm Calm - N/A   Unknown
9:15 PM 26.6 °F - 23.0 °F 86% 30.11 in 10.0 mi Calm Calm - N/A   Unknown
9:35 PM 26.1 °F - 21.9 °F 84% 30.11 in 10.0 mi Calm Calm - N/A   Unknown
9:55 PM 25.7 °F - 21.2 °F 83% 30.11 in 10.0 mi Calm Calm - N/A   Unknown
10:15 PM 25.5 °F - 21.2 °F 84% 30.12 in 10.0 mi Calm Calm - N/A   Unknown
10:35 PM 25.3 °F - 20.5 °F 82% 30.12 in 10.0 mi Calm Calm - N/A   Unknown
10:55 PM 24.8 °F - 19.6 °F 81% 30.13 in 10.0 mi Calm Calm - N/A   Unknown
11:15 PM 24.8 °F - 19.2 °F 79% 30.12 in 10.0 mi Calm Calm - N/A   Unknown
11:35 PM 24.4 °F - 18.9 °F 79% 30.12 in 10.0 mi Calm Calm - N/A   Unknown
11:55 PM 23.9 °F - 19.2 °F 82% 30.12 in 10.0 mi Calm Calm - N/A   Unknown